Weather History for Langdon, ND

Change the Weather History Date:

Wednesday, April 25, 2012

  Actual Average (KDVL) Record (KDVL)
Temperature  
Mean Temperature 44 °F -  
Max Temperature 57 °F 59 °F 81 °F (1982)
Min Temperature 32 °F 35 °F 12 °F (2013)
Degree Days  
Heating Degree Days 20    
Moisture  
Dew Point 35 °F    
Average Humidity 66    
Maximum Humidity 93    
Minimum Humidity 48    
Precipitation  
Precipitation 0.00 in - - ()
Sea Level Pressure  
Sea Level Pressure 29.75 in    
Wind  
Wind Speed 18 mph (NNE)    
Max Wind Speed 29 mph    
Max Gust Speed 39 mph    
Averages and records for this station are not official NWS values.
T = Trace of Precipitation, MM = Missing Value Source: NWS Daily Summary

Daily Weather History Graph

Daily Weather History Graph

Search for Another Location

Airport:

Trip Planner

Search our weather history database for the weather conditions in past years. The results will help you decide how hot, cold, wet, or windy it might be!

Date:

Astronomy

Apr. 25, 2012 Rise Set
Actual Time 6:22 AM CDT 8:40 PM CDT
Civil Twilight 5:48 AM CDT 9:15 PM CDT
Nautical Twilight 5:05 AM CDT 9:59 PM CDT
Astronomical Twilight 4:16 AM CDT 10:48 PM CDT
Moon 8:56 AM CDT (4/25) 12:13 AM CDT (4/25)
Length of Visible Light 15h 27m
Length of Day
14h 17m
Waxing Crescent, 17% of the Moon is Illuminated
Apr 25
Waxing Crescent
Apr 29
First Quarter
May 5
Full
May 12
Last Quarter
May 20
New

Hourly Weather History & Observations

Time (CDT) Temp. Windchill Dew Point Humidity Pressure Visibility Wind Dir Wind Speed Gust Speed Precip Events Conditions
12:15 AM 48.2 °F - 35.6 °F 62% 29.51 in - East 20.7 mph 27.6 mph N/A   Partly Cloudy
12:35 AM 48.2 °F - 35.6 °F 62% 29.51 in - East 20.7 mph 26.5 mph N/A   Partly Cloudy
12:55 AM 48.2 °F - 35.6 °F 62% 29.52 in - East 18.4 mph - N/A   Partly Cloudy
1:15 AM 48.2 °F - 35.6 °F 62% 29.55 in - NE 23.0 mph - N/A Rain Light Rain
1:35 AM 48.2 °F - 35.6 °F 62% 29.54 in - ENE 21.9 mph 28.8 mph N/A   Mostly Cloudy
2:15 AM 50.0 °F - 33.8 °F 54% 29.52 in - East 19.6 mph 33.4 mph N/A   Partly Cloudy
2:35 AM 48.2 °F - 33.8 °F 58% 29.51 in - ESE 28.8 mph 39.1 mph N/A   Clear
2:55 AM 48.2 °F - 32.0 °F 54% 29.51 in - ESE 26.5 mph 32.2 mph N/A   Scattered Clouds
3:15 AM 46.4 °F 38.1 °F 32.0 °F 57% 29.52 in - ESE 24.2 mph 29.9 mph N/A   Mostly Cloudy
3:35 AM 46.4 °F 39.2 °F 32.0 °F 57% 29.52 in - ESE 18.4 mph - N/A   Overcast
3:55 AM 46.4 °F 39.5 °F 33.8 °F 62% 29.54 in - ESE 17.3 mph - N/A   Scattered Clouds
4:15 AM 44.6 °F 37.8 °F 33.8 °F 66% 29.54 in - East 15.0 mph - N/A   Clear
4:35 AM 44.6 °F 38.4 °F 33.8 °F 66% 29.55 in - East 12.7 mph - N/A   Clear
4:55 AM 44.6 °F 38.8 °F 33.8 °F 66% 29.55 in - ENE 11.5 mph - N/A   Clear
5:15 AM 41.0 °F 35.2 °F 37.4 °F 87% 29.56 in - NE 9.2 mph - N/A   Unknown
5:35 AM 39.2 °F 32.5 °F 37.4 °F 93% 29.56 in - NE 10.4 mph - N/A   Unknown
5:55 AM 39.2 °F 33.0 °F 37.4 °F 93% 29.57 in - NE 9.2 mph - N/A   Unknown
6:15 AM 39.2 °F 33.0 °F 37.4 °F 93% 29.58 in - NE 9.2 mph - N/A   Unknown
6:35 AM 39.2 °F 33.6 °F 35.6 °F 87% 29.59 in - NE 8.1 mph - N/A   Unknown
6:55 AM 39.2 °F 33.6 °F 35.6 °F 87% 29.61 in - North 8.1 mph - N/A   Unknown
7:15 AM 39.2 °F 33.6 °F 35.6 °F 87% 29.61 in - NNE 8.1 mph - N/A   Unknown
7:35 AM 41.0 °F 36.4 °F 35.6 °F 81% 29.62 in - NNE 6.9 mph - N/A   Clear
7:55 AM 41.0 °F 34.7 °F 35.6 °F 81% 29.63 in - NNE 10.4 mph - N/A   Clear
8:15 AM 42.8 °F 36.6 °F 35.6 °F 76% 29.64 in - NNE 11.5 mph - N/A   Clear
8:55 AM 46.4 °F 41.9 °F 37.4 °F 71% 29.65 in - NNE 9.2 mph - N/A   Clear
9:15 AM 48.2 °F - 37.4 °F 66% 29.66 in - NNE 11.5 mph - N/A   Clear
9:35 AM 50.0 °F - 37.4 °F 62% 29.65 in - NNE 11.5 mph - N/A   Clear
9:55 AM 50.0 °F - 37.4 °F 62% 29.66 in - NNE 11.5 mph - N/A   Clear
10:15 AM 51.8 °F - 39.2 °F 62% 29.67 in - North 15.0 mph - N/A   Clear
10:35 AM 53.6 °F - 39.2 °F 58% 29.69 in - North 18.4 mph - N/A   Clear
10:55 AM 55.4 °F - 37.4 °F 51% 29.70 in - North 18.4 mph 25.3 mph N/A   Partly Cloudy
11:15 AM 53.6 °F - 37.4 °F 54% 29.71 in - North 23.0 mph 28.8 mph N/A   Clear
11:35 AM 55.4 °F - 37.4 °F 51% 29.71 in - North 19.6 mph 27.6 mph N/A   Clear
11:55 AM 53.6 °F - 39.2 °F 58% 29.72 in - NNE 16.1 mph 26.5 mph N/A   Clear
12:15 PM 55.4 °F - 39.2 °F 54% 29.73 in - NNE 19.6 mph 25.3 mph N/A   Clear
12:35 PM 55.4 °F - 37.4 °F 51% 29.73 in - North 19.6 mph 27.6 mph N/A   Clear
12:55 PM 55.4 °F - 39.2 °F 54% 29.74 in - NNE 23.0 mph 28.8 mph N/A   Clear
1:15 PM 55.4 °F - 39.2 °F 54% 29.75 in - NNE 23.0 mph 28.8 mph N/A   Scattered Clouds
1:35 PM 55.4 °F - 37.4 °F 51% 29.76 in - NNE 17.3 mph 28.8 mph N/A   Partly Cloudy
1:55 PM 55.4 °F - 37.4 °F 51% 29.77 in - NNE 25.3 mph 32.2 mph N/A   Clear
2:15 PM 55.4 °F - 37.4 °F 51% 29.77 in - NNE 20.7 mph 31.1 mph N/A   Clear
2:35 PM 57.2 °F - 37.4 °F 48% 29.79 in - NNE 23.0 mph 27.6 mph N/A   Clear
2:55 PM 57.2 °F - 37.4 °F 48% 29.79 in - NNE 24.2 mph 34.5 mph N/A   Clear
3:15 PM 55.4 °F - 37.4 °F 51% 29.80 in - NNE 19.6 mph 32.2 mph N/A   Partly Cloudy
3:55 PM 55.4 °F - 39.2 °F 54% 29.82 in - NNE 24.2 mph 29.9 mph N/A   Mostly Cloudy
4:15 PM 55.4 °F - 37.4 °F 51% 29.82 in - NNE 20.7 mph 27.6 mph N/A   Scattered Clouds
4:35 PM 53.6 °F - 39.2 °F 58% 29.83 in - North 21.9 mph 28.8 mph N/A   Partly Cloudy
4:55 PM 53.6 °F - 39.2 °F 58% 29.84 in - North 25.3 mph 29.9 mph N/A   Mostly Cloudy
5:15 PM 50.0 °F - 37.4 °F 62% 29.86 in - NNE 19.6 mph 26.5 mph N/A   Mostly Cloudy
5:35 PM 50.0 °F - 37.4 °F 62% 29.87 in - NNE 20.7 mph 27.6 mph N/A   Scattered Clouds
5:55 PM 50.0 °F - 37.4 °F 62% 29.89 in - NNE 23.0 mph 27.6 mph N/A   Partly Cloudy
6:15 PM 50.0 °F - 37.4 °F 62% 29.90 in - NNE 21.9 mph 25.3 mph N/A   Partly Cloudy
6:35 PM 48.2 °F - 35.6 °F 62% 29.92 in - North 20.7 mph 28.8 mph N/A   Clear
6:55 PM 46.4 °F 38.3 °F 35.6 °F 66% 29.93 in - NNE 23.0 mph 27.6 mph N/A   Partly Cloudy
7:15 PM 44.6 °F 35.9 °F 33.8 °F 66% 29.93 in - North 23.0 mph - N/A   Scattered Clouds
7:35 PM 42.8 °F 33.5 °F 32.0 °F 66% 29.95 in - North 23.0 mph 27.6 mph N/A   Mostly Cloudy
7:55 PM 41.0 °F 31.1 °F 32.0 °F 70% 29.96 in - North 23.0 mph 27.6 mph N/A   Mostly Cloudy
8:15 PM 41.0 °F 31.6 °F 32.0 °F 70% 29.97 in - North 20.7 mph 27.6 mph N/A   Partly Cloudy
8:35 PM 39.2 °F 30.5 °F 32.0 °F 75% 29.98 in - North 16.1 mph 24.2 mph N/A   Clear
8:55 PM 37.4 °F 28.5 °F 30.2 °F 75% 30.00 in - North 15.0 mph - N/A   Clear
9:15 PM 35.6 °F 25.5 °F 30.2 °F 81% 30.01 in - North 17.3 mph 24.2 mph N/A   Clear
9:35 PM 35.6 °F 25.9 °F 28.4 °F 75% 30.02 in - North 16.1 mph - N/A   Clear
9:55 PM 33.8 °F 24.3 °F 28.4 °F 81% 30.04 in - North 13.8 mph 21.9 mph N/A   Clear
10:15 PM 32.0 °F 21.2 °F 28.4 °F 87% 30.04 in - North 16.1 mph - N/A   Unknown
10:35 PM 32.0 °F 20.5 °F 28.4 °F 87% 30.06 in - North 18.4 mph - N/A   Unknown
10:55 PM 32.0 °F 20.8 °F 26.6 °F 80% 30.06 in - North 17.3 mph - N/A   Clear
11:15 PM 32.0 °F 21.6 °F 26.6 °F 80% 30.07 in - North 15.0 mph - N/A   Clear
11:35 PM 32.0 °F 21.2 °F 26.6 °F 80% 30.08 in - North 16.1 mph 20.7 mph N/A   Clear
11:55 PM 32.0 °F 21.6 °F 24.8 °F 75% 30.09 in - NNE 15.0 mph - N/A   Clear